Find WHDW 13-02

NORAD ID: 66413 Int'l Des: 2025-258 Owner: ZXW Country: CN Constellation: xingwang operational
LEOCIRCULAR

Aktuelle Ansicht

3D-Globus wird geladen...

Über WHDW 13-02

Beschreibung wird geladen...

Nächste Überflüge

Passes for default location (London). Set your location on the main map for personalized predictions.

Höhenverlauf

Loading altitude history...

Zweizeiliger Elementsatz

1 66413U 25258B 26158.76626950 -.00000078 00000-0 99096-4 0 9998
2 66413 50.0023 329.6597 0001091 107.5481 252.5511 13.29324222 28472
Epoch: 7. Juni 2026 • Age: 13 hours

Aktueller Status

Höhe 1148.7 km
Geschwindigkeit 7.28 km/s
Subsatellitenpunkt 18.39°N, 117.82°E
Startdatum 10. Nov. 2025
Alter 0.5 years
Typ other

Technische Details

Klassifizierung Payload
Masse 800.00 kg
Trockenmasse 800.00 kg
Gesamtmasse 800.00 kg
Länge 3.00 m
Durchmesser 1.00 m
Spannweite 10.00 m
Form Box + 2 Pan
Hersteller SECM
Bus-Typ Xingwang S
Phasenstatus In Orbit
Besitzer/Staat ZXW/CN

Most Searched